#timestamp,LO_Frequency,Hit,StdDev 
1665853215.5,286046999.7,N
1665853235.3,286047000.2,N
1665853255.2,286047000.6,N
1665853275.9,286046998.8,N
1665853295.7,286047001.0,N
1665853315.6,286046999.8,N
1665853335.4,286047002.4,N
1665853355.2,286047002.6,N
1665853375.1,286046998.7,N
1665853376.0,286046998.7,N
1665853395.8,286047000.6,N
1665853445.7,286047002.3,E
1665853455.6,286047000.7,N
1665853475.4,286046995.1,P
1665853495.3,286046997.8,N
1665853515.1,286046996.8,N
1665853535.9,286046995.3,N
1665853555.7,286046995.1,N
1665853575.5,286046996.1,N
1665853595.4,286046997.2,N
1665853615.2,286046997.0,N
1665853635.0,286046999.4,N
1665853635.9,286046999.4,N
1665853655.8,286046998.5,N
1665853675.6,286046998.1,N
1665853695.5,286047000.1,N
1665853715.3,286047001.2,N
1665853735.1,286046998.5,N
1665853755.9,286046996.6,N
1665853775.7,286046995.0,N
1665853795.5,286046995.6,N
1665853815.4,286046998.0,N
1665853835.2,286046996.9,N
1665853855.1,286046996.9,N
1665853856.0,286046996.9,N
1665853875.8,286046998.1,N
1665853895.6,286046996.9,N
1665853915.5,286046999.4,N
1665853935.3,286046998.2,N
1665853955.1,286047000.9,N
1665853975.9,286046999.0,N
1665853995.7,286046998.5,N
1665854015.6,286046998.4,N
1665854035.4,286046998.4,N
1665854055.2,286046997.1,N
1665854075.1,286046999.4,N
1665854076.0,286046999.4,N
1665854095.8,286047000.7,N
1665854115.6,286046998.2,N
1665854135.5,286046998.5,N
1665854155.3,286047000.6,N
1665854175.2,286047000.0,N
1665854195.9,286047000.3,N
1665854215.7,286047002.7,N
1665854235.6,286047002.4,N
1665854255.4,286047001.7,N
1665854275.2,286047000.4,N
1665854295.1,286046999.2,N
1665854296.0,286046999.2,N
1665854315.8,286047001.0,N
1665854335.7,286047000.7,N
1665854355.5,286047001.2,N
1665854375.3,286047000.6,N
1665854395.2,286047001.1,N
1665854415.0,286046998.1,N
1665854415.9,286046998.1,N
1665854435.8,286046998.7,N
1665854455.6,286046999.0,N
1665854475.4,286046997.1,N
1665854495.3,286046997.1,N
1665854515.1,286046996.7,N
1665854535.8,286046998.2,N
1665854585.7,286047000.8,E
1665854595.6,286046998.6,N
1665854615.5,286046997.8,P
1665854635.3,286046997.9,P
1665854655.1,286046996.9,Y
1665854675.9,286047000.8,P
1665854695.7,286047000.3,N
1665854715.6,286046998.2,N
1665854735.4,286047000.5,N
1665854755.2,286047002.7,N
1665854775.1,286047002.4,N
1665854776.0,286047002.4,N
1665854795.8,286047001.6,N
1665854815.6,286047002.0,N
1665854835.5,286047001.1,N
1665854855.3,286046999.3,N
1665854875.2,286046998.8,N
1665854895.9,286047000.7,N
1665854915.7,286046998.7,N
1665854935.6,286046999.3,N
1665854955.4,286047000.2,N
1665854975.2,286046999.9,N
1665854995.1,286047000.2,N
1665854996.0,286047000.2,N
1665855015.8,286047002.8,N
1665855035.7,286047004.0,N
1665855055.5,286047001.5,N
1665855075.3,286047003.7,N
1665855095.2,286046999.8,N
1665855115.0,286046999.8,N
1665855115.9,286046999.8,N
1665855135.8,286046998.1,N
1665855155.6,286047000.5,N
1665855175.4,286047000.4,N
1665855195.3,286046999.9,N
1665855215.1,286047002.7,N
1665855235.8,286047001.5,N
1665855255.7,286047001.4,N
1665855275.5,286047004.0,N
1665855295.4,286047003.7,N
1665855315.2,286047001.3,N
1665855335.0,286047001.7,N
1665855335.9,286047001.7,N
1665855355.8,286047003.8,N
1665855375.6,286047001.4,N
1665855395.4,286047004.2,N
1665855415.3,286047002.6,N
1665855435.1,286047000.4,N
1665855455.9,286047000.4,N
1665855475.7,286047000.7,N
1665855495.5,286047001.3,N
1665855515.4,286047003.7,N
1665855535.2,286047004.1,N
1665855555.0,286047003.3,N
1665855555.9,286047003.3,N
1665855575.8,286047005.9,Y
1665855595.6,286047004.4,P
1665855615.5,286047004.4,P
1665855635.3,286047001.4,N
1665855655.1,286047003.2,N
1665855675.9,286047004.2,Y
1665855695.7,286047000.6,P
1665855715.6,286047000.7,N
1665855735.4,286047000.2,N
1665855755.2,286047000.7,N
1665855775.1,286046998.6,N
1665855776.0,286046998.6,N
1665855795.8,286047000.8,N
1665855815.6,286046998.1,N
1665855835.5,286047000.7,N
1665855855.3,286047000.8,N
1665855875.2,286046998.5,N
1665855895.9,286046998.6,N
1665855915.7,286047001.2,N
1665855935.6,286046999.3,N
1665855955.4,286046999.2,N
1665855975.2,286046996.7,N
1665855995.1,286046997.0,N
1665855996.0,286046997.0,N
1665856015.8,286046996.5,N
1665856035.7,286046996.5,N
1665856055.5,286046999.1,N
1665856075.3,286046997.1,N
1665856095.2,286046996.9,N
1665856115.0,286046996.8,N
1665856115.9,286046996.8,N
1665856135.7,286046997.6,N
1665856155.6,286046996.5,N
1665856175.1,286046997.5,N
1665856195.8,286046997.9,N
1665856215.7,286046994.9,N
1665856235.5,286046995.5,N
1665856255.4,286046995.8,N
1665856275.2,286046995.1,N
1665856295.0,286046993.8,Y
1665856295.9,286046993.8,P
1665856315.8,286046997.1,N
1665856335.6,286046999.5,N
1665856355.5,286046999.6,N
1665856375.3,286046999.3,N
1665856395.1,286046999.3,N
1665856415.9,286046997.0,N
1665856435.7,286046996.6,N
1665856455.5,286046997.2,N
1665856475.4,286046996.7,N
1665856495.2,286046999.2,N
1665856515.1,286046997.1,N
1665856516.0,286046997.1,N
1665856535.8,286046996.8,N
1665856555.6,286046996.8,N
1665856575.5,286046996.7,N
1665856595.3,286046996.8,N
1665856615.2,286046997.8,N
1665856635.9,286046997.7,N
1665856655.7,286046996.6,N
1665856675.6,286046996.5,N
1665856695.4,286046997.4,N
1665856715.3,286046996.9,N
1665856735.1,286046997.4,N
1665856736.0,286046997.4,N
1665856755.8,286046997.3,N
1665856775.7,286046997.7,N
1665856795.5,286046997.3,N
